EW5375 Weather Reports


time (UTC)temp
F
wind
direction
speed
knots
gust
knots
rain 1hr
in
rain 24hr
in
rain mn
in
humidity
%
barometer
mb
20260503033031 60 139 0.0 2.6 0.00 0.00 0.00 43 1010.2
20260503031520 61 170 0.0 3.5 0.00 0.00 0.00 41 1010.0
20260503030040 62 177 0.0 1.7 0.00 0.00 0.00 40 1009.8
20260503024528 63 121 0.0 3.5 0.00 0.00 0.00 38 1009.8
20260503023017 64 152 0.0 2.6 0.00 0.00 0.00 37 1009.7
20260503021516 65 153 0.0 6.1 0.00 0.00 0.00 36 1009.8
20260503020016 66 198 0.0 4.3 0.00 0.00 0.00 34 1009.9
20260503014515 67 162 0.0 2.6 0.00 0.00 0.00 32 1009.9
20260503013015 68 220 0.0 3.5 0.00 0.00 0.00 31 1010.0
20260503011511 69 136 0.0 3.5 0.00 0.00 0.00 30 1010.2
20260503010010 70 264 0.0 2.6 0.00 0.00 0.00 29 1010.3
20260503004514 70 147 0.0 5.2 0.00 0.00 0.00 28 1010.4
20260503003008 71 141 0.0 1.7 0.00 0.00 0.00 29 1010.6
20260503001506 71 143 0.0 0.9 0.00 0.00 0.00 27 1010.7
20260503000007 70 211 0.0 1.7 0.00 0.00 0.00 29 1011.0
20260502234554 70 139 0.0 3.5 0.00 0.00 0.00 31 1011.1
20260502233050 70 108 0.0 0.9 0.00 0.00 0.00 30 1011.3
20260502231548 70 219 0.0 1.7 0.00 0.00 0.00 29 1011.5
20260502230045 70 88 0.0 6.1 0.00 0.00 0.00 31 1011.8
20260502224545 69 158 0.0 3.5 0.00 0.00 0.00 32 1011.9
20260502223040 70 210 0.0 3.5 0.00 0.00 0.00 30 1012.3
20260502221537 68 326 0.0 6.1 0.00 0.00 0.00 32 1012.5
20260502220037 67 200 0.0 0.9 0.00 0.00 0.00 33 1012.7
20260502214534 66 245 0.0 1.7 0.00 0.00 0.00 33 1012.9
20260502213040 68 176 0.0 0.9 0.00 0.00 0.00 32 1013.1
20260502211531 66 223 0.0 3.5 0.00 0.00 0.00 34 1013.4
20260502210029 65 174 0.0 1.7 0.00 0.00 0.00 36 1013.7
20260502204525 66 240 0.0 2.6 0.00 0.00 0.00 34 1014.0
20260502203022 66 145 0.0 2.6 0.00 0.00 0.00 33 1014.2
20260502201526 65 191 0.0 2.6 0.00 0.00 0.00 34 1014.4
20260502200019 65 215 0.0 1.7 0.00 0.00 0.00 35 1014.7
20260502194514 64 132 0.0 3.5 0.00 0.00 0.00 36 1015.0
20260502193012 63 127 0.0 1.7 0.00 0.00 0.00 37 1015.1
20260502191509 64 131 0.0 3.5 0.00 0.00 0.00 37 1015.2
20260502190009 62 254 0.0 1.7 0.00 0.00 0.00 37 1015.5
20260502184504 63 155 0.0 1.7 0.00 0.00 0.00 38 1015.6
20260502183002 62 229 0.0 4.3 0.00 0.00 0.00 39 1016.0
20260502181615 60 160 0.0 2.6 0.00 0.00 0.00 43 1016.1
20260502163041 54 103 0.0 2.6 0.00 0.00 0.00 54 1017.2
20260502161541 53 114 0.0 0.9 0.00 0.00 0.00 54 1017.3
20260502151537 51 51 0.0 2.6 0.00 0.00 0.00 56 1017.6
20260502123024 48 335 0.0 0.9 0.00 0.00 0.00 62 1017.2
20260502121523 48 342 0.0 0.0 0.00 0.00 0.00 62 1017.2
20260502114520 49 359 0.0 0.0 0.00 0.00 0.00 61 1017.1
20260502113020 49 5 0.0 1.7 0.00 0.00 0.00 60 1016.9
20260502111517 49 328 0.0 0.9 0.00 0.00 0.00 60 1017.0
20260502110017 50 13 0.0 2.6 0.00 0.00 0.00 59 1017.1
20260502104517 50 294 0.0 1.7 0.00 0.00 0.00 59 1016.9
20260502103020 50 345 0.0 1.7 0.00 0.00 0.00 59 1017.0
20260502101514 50 320 0.0 0.9 0.00 0.00 0.00 60 1017.0
20260502091506 51 323 0.0 2.6 0.00 0.00 0.00 59 1016.7
20260502070100 51 284 0.0 0.9 0.00 0.00 0.00 58 1016.6
20260502064602 51 257 0.0 0.9 0.00 0.00 0.00 58 1016.6
20260502063054 51 248 0.0 0.0 0.00 0.00 0.00 57 1016.5
20260502061553 52 288 0.0 1.7 0.00 0.00 0.00 57 1016.5
20260502060050 52 314 0.0 1.7 0.00 0.00 0.00 57 1016.4
20260502054556 52 334 0.0 0.9 0.00 0.00 0.00 55 1016.4
20260502053048 53 306 0.0 1.7 0.00 0.00 0.00 55 1016.1
20260502051545 53 355 0.0 5.2 0.00 0.00 0.00 54 1016.0
20260502050048 53 6 0.0 5.2 0.00 0.00 0.00 54 1015.8
20260502044542 53 14 0.9 3.5 0.00 0.00 0.00 53 1015.6
20260502043045 54 28 0.9 5.2 0.00 0.00 0.00 52 1015.4
20260502041539 54 353 1.7 5.2 0.00 0.00 0.00 52 1015.3
20260502040045 55 13 0.9 5.2 0.00 0.00 0.00 51 1015.0
20260502034535 55 45 0.9 6.1 0.00 0.00 0.00 51 1014.9